SCP
0 0 0 0 0 0 0 0 0 0 0 0 0 0 0 0 0 0 0 0 0 0 0 0 0 0 0 0 0 0 0 0
0 0 0 0 0 0 0 0 0 0 0 0 0 0 0 0 0 0 0 0 0 0 0 0 0 0 0 0 0 0 0 0
0 0 0 0 0 0 0 0 0 0 0 0 0 0 0 0 0 0 0 0 0 0 0 0 0 0 0 0 0 0 0 0
0 0 0 0 0 0 0 0 0 0 0 0 0 0 0 0 0 0 0 0 0 0 0 0 0 0 0 0 0 0 0 0
-0 0 0 0 0 0 0 0 0 0 0 0 0 0 0 0 0 0 0 0 0 0 0 0 0 0 0 0 0 0 0 0
0 0 0 0 0 0 0 0 0 0 0 0 0 0 0 0 0 0 0 0 0 0 0 0 0 0 0 0 0 0 0 0
0 0 0 0 0 0 0 0 0 0 0 0 0 0 0 0 0 0 0 0 0 0 0 0 0 0 0 0 0 0 0 0
0 0 0 0 0 0 0 0 0 0 0 0 0 0 0 0 0 0 0 0 0 0 0 0 0 0 0 0 0 0 0 0
0 0 0 0 0 0 0 0 0 0 0 0 0 0 0 0 0 0 0 0 0 0 0 0 0 0 0 0 0 0 0 0
0 0 0 0 0 0 0 0 0 0 0 0 0 0 0 0 0 0 0 0 0 0 0 0 0 0 0 0 0 0 0 0
0 0 0 0 0 0 0 0 0 0 0 0 0 0 0 0 0 0 0 0 0 0 0 0 0 0 0 0 0 0 0 0
0 0 0 0 0 0 0 0 0 0 0 0 0 0 0 0 0 0 0 0 0 0 0 0 0 0 0 0 0 0 0 0
0 0 0 0 0 0 0 0 0 0 0 0 0 0 0 0 0 0 0 0 0 0 0 0 0 0 0 0 0 0 0 0
0 0 0 0 0 0 0 0 0 0 0 0 0 0 0 0 0 0 0 0 0 0 0 0 0 0 0 0 0 0 0 0
0 0 0 0 0 0 0 0 0 0 0 0 0 0 0 0 0 0 0 0 0 0 0 0 0 0 0 0 0 0 0 0
0 0 0 0 0 0 0 0 0 0 0 0 0 0 0 0 0 0 0 0 0 0 0 0 0 0 0 0 0 0 0 0
0 0 0 0 0 0 0 0 0 0 0 0 0 0 0 0 0 0 0 0 0 0 0 0 0 0 0 0 0 0 0 0
0 0 0 0 0 0 0 0 0 0 0 0 0 0 0 0 0 0 0 0 0 0 0 0 0 0 0 0 0 0 0 0
0 0 0 0 0 0 0 0 0 0 0 0 0 0 0 0 0 0 0 0 0 0 0 0 0 0 0 0 0 0 0 0
0 0 0 0 0 0 0 0 0 0 0 0 0 0 0 0 0 0 0 0 0 0 0 0 0 0 0 0 0 0 0 0
Wind_Speed_500mb
55 55 51 55 53 54 57 68 71 70 72 69 68 68 66 68 64 62 57 53 52 52 51 48 46 47 51 54 54 58 57 59
48 53 56 48 51 55 57 60 69 68 64 62 60 59 61 63 62 61 58 56 54 52 50 48 49 52 55 56 57 59 57 57
47 39 51 46 41 43 47 50 57 62 61 58 56 55 56 58 56 54 54 52 52 51 49 51 52 51 54 56 54 52 52 54
36 39 48 46 43 39 39 42 46 53 58 58 56 55 53 52 51 52 53 55 55 53 52 50 50 47 46 44 48 51 57 58
38 38 50 47 44 41 38 38 40 44 47 48 48 48 49 49 50 50 51 50 48 45 44 44 44 46 47 50 48 54 53 58
45 39 39 45 44 41 39 37 36 36 38 38 38 38 38 39 40 40 41 40 40 41 41 42 44 47 50 51 52 50 52 55
58 47 45 43 42 41 39 37 34 33 32 32 33 33 34 34 32 31 30 31 32 34 36 39 40 39 40 43 46 46 41 39
66 54 55 52 49 48 43 40 38 36 36 36 36 35 32 29 27 27 27 26 25 24 23 27 30 36 40 43 40 36 30 22
101 95 69 60 59 56 53 49 44 41 40 39 38 34 31 29 28 27 25 24 24 24 24 25 26 29 30 26 22 20 14 12
121 99 79 74 71 69 64 58 53 46 44 42 40 36 31 31 31 30 31 30 27 24 23 23 22 19 15 15 15 14 12 13
122 107 93 77 80 77 73 67 59 51 46 46 42 38 37 37 36 34 31 28 24 19 17 16 13 9 9 12 10 10 13 11
112 107 102 83 91 88 81 76 62 53 53 51 46 43 43 39 36 32 28 25 22 21 19 12 8 6 8 10 10 12 10 9
93 93 95 90 97 98 90 77 67 62 59 55 51 48 45 41 38 34 30 26 22 22 15 9 7 9 10 11 10 7 9 10
94 89 96 92 93 104 95 84 75 68 62 59 55 50 46 45 41 36 31 29 25 21 17 13 12 10 10 9 7 4 3 7
91 93 87 88 95 104 100 92 80 72 66 64 58 55 52 47 41 36 34 32 28 25 23 22 21 17 10 8 7 6 6 4
86 95 97 91 101 106 97 87 80 73 72 70 66 60 56 47 41 39 37 28 29 31 29 28 24 18 13 10 9 9 8 8
71 87 93 91 103 100 91 85 81 78 80 78 73 67 62 59 57 49 39 37 34 31 26 27 22 17 14 11 9 9 8 9
70 80 87 88 97 92 86 80 80 82 85 80 73 69 66 63 59 61 55 46 40 33 30 25 19 16 12 7 7 6 5 4
60 69 77 82 87 83 78 79 80 79 80 76 73 67 63 60 58 51 49 50 45 37 28 23 18 15 12 9 6 4 3 5
50 56 64 74 76 77 78 77 74 75 75 71 67 65 62 59 53 49 47 43 38 32 27 22 19 15 12 8 3 2 4 7
Wind_Direction_500mb
276 265 259 253 252 242 242 234 236 238 238 242 244 245 249 252 256 258 262 264 263 262 264 265 264 262 263 265 268 270 272 276
290 261 245 252 246 239 237 236 234 236 240 242 244 245 246 251 255 256 258 259 259 261 260 258 258 260 262 264 266 271 275 278
283 254 236 241 240 237 233 232 231 233 238 241 242 242 244 246 248 249 250 251 252 254 255 254 256 258 261 264 270 271 278 282
289 254 234 236 239 239 236 233 232 232 232 233 236 237 240 244 246 247 248 249 250 250 251 253 256 255 261 262 267 266 267 275
285 265 238 239 242 241 240 235 230 227 225 225 227 233 238 243 246 249 250 250 251 252 254 255 253 258 258 260 265 266 266 265
293 273 248 243 242 237 233 227 220 216 217 218 220 224 230 236 241 245 251 255 258 258 256 253 252 253 254 254 256 261 266 272
298 282 258 246 237 229 220 212 207 207 211 216 222 228 233 238 242 246 247 248 249 249 248 247 248 250 252 252 258 262 264 267
294 280 268 249 237 228 221 215 213 215 220 227 231 234 236 236 236 234 232 231 231 232 231 228 232 241 246 253 257 260 262 269
284 285 276 245 231 226 224 226 225 227 230 235 238 235 231 230 230 229 226 224 221 223 227 233 238 247 256 252 245 248 264 282
274 271 275 245 227 224 226 229 231 234 238 239 234 231 229 226 222 216 215 214 216 219 230 241 251 264 266 260 262 260 261 274
268 266 265 245 230 227 227 227 230 234 239 235 230 226 221 215 213 210 209 214 219 224 237 243 249 264 273 275 280 265 272 300
268 266 259 246 229 228 227 227 228 231 234 232 227 223 217 210 206 207 208 209 206 204 206 208 227 241 219 232 232 221 250 290
265 261 257 245 229 227 225 225 224 227 228 225 219 214 208 203 201 195 193 191 189 191 192 199 218 229 216 225 235 232 238 258
261 260 256 243 231 225 222 221 222 220 219 214 208 203 199 196 192 188 187 188 184 182 179 175 186 194 198 186 197 199 238 274
257 250 249 241 230 222 219 217 216 213 208 203 199 193 189 187 187 188 187 183 178 172 164 161 161 153 145 129 119 94 73 23
259 251 246 242 223 216 213 211 209 204 199 194 188 187 185 182 182 181 174 171 171 165 161 159 149 138 131 119 107 87 73 53
268 249 243 235 216 211 208 207 205 197 193 188 183 182 183 182 174 167 175 167 161 164 160 152 143 143 140 130 110 90 69 61
269 248 239 226 212 208 205 203 200 198 191 185 183 183 183 182 179 171 163 161 159 158 157 148 148 143 135 135 124 98 66 39
258 244 233 218 207 204 201 198 196 195 194 187 183 183 181 180 178 177 173 168 163 160 155 149 150 156 165 165 159 128 73 11
249 235 220 208 201 198 195 193 192 193 192 186 180 176 175 174 172 168 165 164 166 163 158 162 164 167 167 159 140 8 331 333
Wind_Speed_850mb
55 55 51 55 53 54 57 68 71 70 72 69 68 68 66 68 64 62 57 53 52 52 51 48 46 47 51 54 54 58 57 59
48 53 56 48 51 55 57 60 69 68 64 62 60 59 61 63 62 61 58 56 54 52 50 48 49 52 55 56 57 59 57 57
47 39 51 46 41 43 47 50 57 62 61 58 56 55 56 58 56 54 54 52 52 51 49 51 52 51 54 56 54 52 52 54
36 39 48 46 43 39 39 42 46 53 58 58 56 55 53 52 51 52 53 55 55 53 52 50 50 47 46 44 48 51 57 58
38 38 50 47 44 41 38 38 40 44 47 48 48 48 49 49 50 50 51 50 48 45 44 44 44 46 47 50 48 54 53 58
45 39 39 45 44 41 39 37 36 36 38 38 38 38 38 39 40 40 41 40 40 41 41 42 44 47 50 51 52 50 52 55
58 47 45 43 42 41 39 37 34 33 32 32 33 33 34 34 32 31 30 31 32 34 36 39 40 39 40 43 46 46 41 39
66 54 55 52 49 48 43 40 38 36 36 36 36 35 32 29 27 27 27 26 25 24 23 27 30 36 40 43 40 36 30 22
101 95 69 60 59 56 53 49 44 41 40 39 38 34 31 29 28 27 25 24 24 24 24 25 26 29 30 26 22 20 14 12
121 99 79 74 71 69 64 58 53 46 44 42 40 36 31 31 31 30 31 30 27 24 23 23 22 19 15 15 15 14 12 13
122 107 93 77 80 77 73 67 59 51 46 46 42 38 37 37 36 34 31 28 24 19 17 16 13 9 9 12 10 10 13 11
112 107 102 83 91 88 81 76 62 53 53 51 46 43 43 39 36 32 28 25 22 21 19 12 8 6 8 10 10 12 10 9
93 93 95 90 97 98 90 77 67 62 59 55 51 48 45 41 38 34 30 26 22 22 15 9 7 9 10 11 10 7 9 10
94 89 96 92 93 104 95 84 75 68 62 59 55 50 46 45 41 36 31 29 25 21 17 13 12 10 10 9 7 4 3 7
91 93 87 88 95 104 100 92 80 72 66 64 58 55 52 47 41 36 34 32 28 25 23 22 21 17 10 8 7 6 6 4
86 95 97 91 101 106 97 87 80 73 72 70 66 60 56 47 41 39 37 28 29 31 29 28 24 18 13 10 9 9 8 8
71 87 93 91 103 100 91 85 81 78 80 78 73 67 62 59 57 49 39 37 34 31 26 27 22 17 14 11 9 9 8 9
70 80 87 88 97 92 86 80 80 82 85 80 73 69 66 63 59 61 55 46 40 33 30 25 19 16 12 7 7 6 5 4
60 69 77 82 87 83 78 79 80 79 80 76 73 67 63 60 58 51 49 50 45 37 28 23 18 15 12 9 6 4 3 5
50 56 64 74 76 77 78 77 74 75 75 71 67 65 62 59 53 49 47 43 38 32 27 22 19 15 12 8 3 2 4 7
Wind_Direction_850mb
276 265 259 253 252 242 242 234 236 238 238 242 244 245 249 252 256 258 262 264 263 262 264 265 264 262 263 265 268 270 272 276
290 261 245 252 246 239 237 236 234 236 240 242 244 245 246 251 255 256 258 259 259 261 260 258 258 260 262 264 266 271 275 278
283 254 236 241 240 237 233 232 231 233 238 241 242 242 244 246 248 249 250 251 252 254 255 254 256 258 261 264 270 271 278 282
289 254 234 236 239 239 236 233 232 232 232 233 236 237 240 244 246 247 248 249 250 250 251 253 256 255 261 262 267 266 267 275
285 265 238 239 242 241 240 235 230 227 225 225 227 233 238 243 246 249 250 250 251 252 254 255 253 258 258 260 265 266 266 265
293 273 248 243 242 237 233 227 220 216 217 218 220 224 230 236 241 245 251 255 258 258 256 253 252 253 254 254 256 261 266 272
298 282 258 246 237 229 220 212 207 207 211 216 222 228 233 238 242 246 247 248 249 249 248 247 248 250 252 252 258 262 264 267
294 280 268 249 237 228 221 215 213 215 220 227 231 234 236 236 236 234 232 231 231 232 231 228 232 241 246 253 257 260 262 269
284 285 276 245 231 226 224 226 225 227 230 235 238 235 231 230 230 229 226 224 221 223 227 233 238 247 256 252 245 248 264 282
274 271 275 245 227 224 226 229 231 234 238 239 234 231 229 226 222 216 215 214 216 219 230 241 251 264 266 260 262 260 261 274
268 266 265 245 230 227 227 227 230 234 239 235 230 226 221 215 213 210 209 214 219 224 237 243 249 264 273 275 280 265 272 300
268 266 259 246 229 228 227 227 228 231 234 232 227 223 217 210 206 207 208 209 206 204 206 208 227 241 219 232 232 221 250 290
265 261 257 245 229 227 225 225 224 227 228 225 219 214 208 203 201 195 193 191 189 191 192 199 218 229 216 225 235 232 238 258
261 260 256 243 231 225 222 221 222 220 219 214 208 203 199 196 192 188 187 188 184 182 179 175 186 194 198 186 197 199 238 274
257 250 249 241 230 222 219 217 216 213 208 203 199 193 189 187 187 188 187 183 178 172 164 161 161 153 145 129 119 94 73 23
259 251 246 242 223 216 213 211 209 204 199 194 188 187 185 182 182 181 174 171 171 165 161 159 149 138 131 119 107 87 73 53
268 249 243 235 216 211 208 207 205 197 193 188 183 182 183 182 174 167 175 167 161 164 160 152 143 143 140 130 110 90 69 61
269 248 239 226 212 208 205 203 200 198 191 185 183 183 183 182 179 171 163 161 159 158 157 148 148 143 135 135 124 98 66 39
258 244 233 218 207 204 201 198 196 195 194 187 183 183 181 180 178 177 173 168 163 160 155 149 150 156 165 165 159 128 73 11
249 235 220 208 201 198 195 193 192 193 192 186 180 176 175 174 172 168 165 164 166 163 158 162 164 167 167 159 140 8 331 333